Preview of NWS' New Version of Forecast
This preview is not operational and should not be used for support decisions.

Regional Weather Roundup (RWR)

Issued by National Weather Service (NWS)

                            
000
ASUS43 KDMX 212001
RWRIA 

WEATHER ROUNDUP FOR IOWA
NATIONAL WEATHER SERVICE DES MOINES IA
300 PM CDT SUN APR 21 2019

NOTE: "FAIR" INDICATES FEW OR NO CLOUDS BELOW 12,000 FEET WITH NO
SIGNIFICANT WEATHER AND/OR OBSTRUCTIONS TO VISIBILITY.

* - THESE STATIONS ARE NOT NWS STATIONS...THUS NOT UNDER NWS
QUALITY CONTROL.  THEY ALSO DO NOT REPORT WEATHER SUCH 
AS PRECIPITATION OR FOG.  

IAZ001>003-012>014-020>022-031>034-043>046-212100-
   NORTHWEST IOWA
  
CITY           SKY/WX    TMP DP  RH WIND       PRES   REMARKS
CARROLL *      CLOUDY    81  50  34 S25G37    29.71S HX  80           
CHEROKEE *     CLOUDY    79  50  35 S21       29.70R                  
DENISON *      PTSUNNY   77  50  38 S16G23    29.71F                  
LE MARS *      CLOUDY    75  50  41 S14       29.69R                  
SHELDON *      CLOUDY    79  50  36 S14G20    29.69R                  
SIOUX CITY     CLOUDY    75  51  43 S14       29.68S                  
SPENCER        CLOUDY    82  51  34 S17       29.70S HX  81           
STORM LAKE *   CLOUDY    77  48  36 S21G28    29.66F                  
$$
 
IAZ055>058-069>071-079>083-090>094-212100-
   SOUTHWEST IOWA
  
CITY           SKY/WX    TMP DP  RH WIND       PRES   REMARKS
ATLANTIC *     CLOUDY    81  50  34 S20G31    29.71F HX  80           
AUDUBON *      CLOUDY    77  48  36 CALM      29.74F                  
CLARINDA *     SUNNY     84  50  30 S18G31    29.73F HX  82           
COUNCIL BLFS * MOSUNNY   81  50  34 S18G26    29.67F HX  80           
CRESTON *      CLOUDY    82  50  32 S26G33    29.76F HX  81           
HARLAN  *      PTSUNNY   82  50  32 S20G31    29.68F HX  81           
LAMONI         CLOUDY    78  48  34 S17G32    29.80S                  
RED OAK *      SUNNY     86  52  30 S24G31    29.70F HX  84           
SHENANDOAH *   SUNNY     86  50  28 S29G38    29.67F HX  84           
$$
 
IAZ047>049-059>061-072>074-084-212100-
   CENTRAL IOWA
  
CITY           SKY/WX    TMP DP  RH WIND       PRES   REMARKS
AMES           PTSUNNY   82  50  32 S16G33    29.76F HX  81           
ANKENY *       MOSUNNY   82  48  30 S18G29    29.77F HX  81           
BOONE *        PTSUNNY   84  48  28 S18G33    29.74S HX  82           
CHARITON *     MOSUNNY   82  48  30 S25G31    29.80F HX  81           
DES MOINES     PTSUNNY   84  48  28 S23G31    29.76F HX  82           
GRINNELL*      SUNNY     82  46  28 S21G29    29.83F HX  80           
KNOXVILLE *    SUNNY     81  46  30 S21G31    29.81S HX  80           
MARSHALLTOWN   MOSUNNY   83  49  30 S24G35    29.77F HX  81           
NEWTON *       MOSUNNY   82  48  30 S24       29.79F HX  81           
PELLA *        SUNNY     84  42  22 S24G31    29.82F HX  82           
PERRY *        FAIR      85  44  24 S22G29    29.74S HX  82           
$$
 
IAZ004>006-015-016-023>025-035-036-212100-
   NORTH CENTRAL IOWA
  
CITY           SKY/WX    TMP DP  RH WIND       PRES   REMARKS
ALGONA *       PTSUNNY   84  50  30 S28G39    29.70S HX  82           
CLARION *      MOSUNNY   84  46  26 S25G32    29.74S HX  82           
ESTHERVILLE    PTSUNNY   83  49  30 S21G35    29.71S HX  81           
FORT DODGE *   MOSUNNY   83  51  33 S20G30    29.73S HX  81           
MASON CITY     SUNNY     86  51  29 S21G35    29.75F HX  84           
FOREST CITY *  FAIR      84  43  23 S24G32    29.73F HX  82           
IOWA FALLS *   FAIR      83  48  29 S26G35    29.77F HX  81           
$$

IAZ007>011-017>019-026>030-037>042-050>054-066-212100-
   NORTHEAST IOWA
  
CITY           SKY/WX    TMP DP  RH WIND       PRES   REMARKS
CEDAR RAPIDS   FAIR      83  45  26 S20G32    29.83F HX  81           
CHARLES CITY * FAIR      84  46  26 S23G31    29.77F HX  82           
DECORAH *      FAIR      82  45  26 S16G26    29.80S HX  80           
DUBUQUE        FAIR      81  45  28 S24G36    29.87F HX  80           
MONTICELLO *   FAIR      82  46  28 S18G29    29.85F HX  81           
OELWEIN *      FAIR      82  48  30 S25G35    29.82S HX  81           
WATERLOO       FAIR      86  49  27 S28G38    29.78F HX  83           
$$
 
IAZ064-065-067-068-078-212100-
   EAST CENTRAL IOWA
  
CITY           SKY/WX    TMP DP  RH WIND       PRES   REMARKS
DAVENPORT      FAIR      83  43  24 S20       29.91F HX  81           
IOWA CITY      FAIR      84  44  24 S15G31    29.87S HX  82           
MT. PLEASANT * MOSUNNY   82  46  28 S18G26    29.89S HX  81           
MUSCATINE *    FAIR      82  46  28 S17G26    29.88F HX  81           
QUAD CITIES    FAIR      83  44  25 S15G25    29.89F HX  81           
$$
 
IAZ062-063-075>077-085>089-095>099-212100-
   SOUTHEAST IOWA
  
CITY           SKY/WX    TMP DP  RH WIND       PRES   REMARKS
BURLINGTON     SUNNY     80  49  33 S15       29.90F                  
FAIRFIELD *    MOSUNNY   82  43  24 S21G28    29.86S HX  80           
FORT MADISON * MOSUNNY   81  48  32 S13G20    29.91F HX  80           
KEOKUK *       MOSUNNY   79  45  29 S15G22    29.90S                  
OSKALOOSA *    FAIR      85  41  21 S21G29    29.83F HX  82           
CENTERVILLE *  FAIR      81  46  30 S18G28    29.86S HX  80           
OTTUMWA        SUNNY     84  47  27 S23G35    29.84F HX  82           
WASHINGTON *   MOSUNNY   84  43  23 S22G28    29.87S HX  82           
$$

ABBREVIATIONS USED IN REMARKS
   TC - TEMPERATURES IN CELSIUS
  WCI - WIND CHILL INDEX
   HX - HEAT INDEX
  VSB - VISIBILITY  
$$